Location: Campillo
(40.8621°N, 4.2488°W)
Time: 11:17:24
(UTC+00:00)

USA 306 - Pass Details

Date: 29 September 2021
Orbit: 564 x 573 km, 54.0° (Epoch: 24 September)

Event Time Altitude Azimuth Distance (km) Brightness Sun altitude
Rises 19:17:59 0° 314° (NW) 2,761 7.4 -15.1°
Reaches altitude 10° 19:20:26 10° 325° (NW) 1,864 6.2 -15.6°
Maximum altitude 19:24:14 31° 29° (NNE) 1,001 4.0 -16.3°
Enters shadow 19:25:34 26° 63° (ENE) 1,141 4.0 -16.5°
